Location: Franzen
(48.6167°N, 15.3833°E)
Time: 06:33:04
(UTC+00:00)

Altair - Pass Details

Date: 09 August 2021
Orbit: 1501 x 1682 km, 47.2° (Epoch: 21 September)

Event Time Altitude Azimuth Distance (km) Brightness Sun altitude
Rises 20:09:19 0° 185° (S) 4,839 9.7 -15.0°
Enters shadow 20:10:00 - 183° (S) 4,666 9.6 -15.1°
Exits shadow 20:21:31 18° 115° (ESE) 3,185 8.6 -16.4°
Drops below altitude 10° 20:25:44 10° 89° (E) 3,743 9.2 -16.8°
Sets 20:29:55 0° 73° (ENE) 4,701 9.8 -17.3°
